Year,Month,Day,Hour,Minute,Value (Times are PST for temperature in C)
2009,06,29,00,00,8.10
2009,06,29,00,01,8.10
2009,06,29,00,02,8.00
2009,06,29,00,03,8.00
2009,06,29,00,04,8.00
2009,06,29,00,05,8.00
2009,06,29,00,06,8.00
2009,06,29,00,07,7.90
2009,06,29,00,08,7.90
2009,06,29,00,09,7.90
2009,06,29,00,10,7.90
2009,06,29,00,11,7.90
2009,06,29,00,12,7.90
2009,06,29,00,13,7.90
2009,06,29,00,14,7.90
2009,06,29,00,15,7.90
2009,06,29,00,16,7.90
2009,06,29,00,17,7.90
2009,06,29,00,18,7.90
2009,06,29,00,19,7.90
2009,06,29,00,20,7.90
2009,06,29,00,21,7.90
2009,06,29,00,22,7.90
2009,06,29,00,23,7.90
2009,06,29,00,24,7.90
2009,06,29,00,25,7.90
2009,06,29,00,26,7.90
2009,06,29,00,27,7.90
2009,06,29,00,28,7.90
2009,06,29,00,29,7.90
2009,06,29,00,30,7.90
2009,06,29,00,31,7.90
2009,06,29,00,32,7.90
2009,06,29,00,33,7.90
2009,06,29,00,34,7.90
2009,06,29,00,35,7.90
2009,06,29,00,36,7.90
2009,06,29,00,37,7.90
2009,06,29,00,38,7.90
2009,06,29,00,39,7.90
2009,06,29,00,40,7.90
2009,06,29,00,41,7.90
2009,06,29,00,42,7.90
2009,06,29,00,43,7.90
2009,06,29,00,44,7.80
2009,06,29,00,45,7.80
2009,06,29,00,46,7.80
2009,06,29,00,47,7.80
2009,06,29,00,48,7.80
2009,06,29,00,49,7.80
2009,06,29,00,50,7.90
2009,06,29,00,51,7.90
2009,06,29,00,52,7.90
2009,06,29,00,53,7.90
2009,06,29,00,54,7.80
2009,06,29,00,55,7.80
2009,06,29,00,56,7.80
2009,06,29,00,57,7.80
2009,06,29,00,58,7.70
2009,06,29,00,59,7.70
2009,06,29,01,00,7.70
2009,06,29,01,01,7.70
2009,06,29,01,02,7.60
2009,06,29,01,03,7.60
2009,06,29,01,04,7.60
2009,06,29,01,05,7.60
2009,06,29,01,06,7.60
2009,06,29,01,07,7.60
2009,06,29,01,08,7.60
2009,06,29,01,09,7.60
2009,06,29,01,10,7.50
2009,06,29,01,11,7.50
2009,06,29,01,12,7.50
2009,06,29,01,13,7.50
2009,06,29,01,14,7.50
2009,06,29,01,15,7.50
2009,06,29,01,16,7.50
2009,06,29,01,17,7.50
2009,06,29,01,18,7.50
2009,06,29,01,19,7.50
2009,06,29,01,20,7.50
2009,06,29,01,21,7.50
2009,06,29,01,22,7.40
2009,06,29,01,23,7.40
2009,06,29,01,24,7.40
2009,06,29,01,25,7.40
2009,06,29,01,26,7.50
2009,06,29,01,27,7.50
2009,06,29,01,28,7.60
2009,06,29,01,29,7.70
2009,06,29,01,30,7.70
2009,06,29,01,31,7.70
2009,06,29,01,32,7.70
2009,06,29,01,33,7.70
2009,06,29,01,34,7.70
2009,06,29,01,35,7.60
2009,06,29,01,36,7.60
2009,06,29,01,37,7.60
2009,06,29,01,38,7.60
2009,06,29,01,39,7.60
2009,06,29,01,40,7.60
2009,06,29,01,41,7.60
2009,06,29,01,42,7.60
2009,06,29,01,43,7.60
2009,06,29,01,44,7.60
2009,06,29,01,45,7.60
2009,06,29,01,46,7.60
2009,06,29,01,47,7.60
2009,06,29,01,48,7.60
2009,06,29,01,49,7.60
2009,06,29,01,50,7.60
2009,06,29,01,51,7.60
2009,06,29,01,52,7.50
2009,06,29,01,53,7.50
2009,06,29,01,54,7.50
2009,06,29,01,55,7.50
2009,06,29,01,56,7.50
2009,06,29,01,57,7.40
2009,06,29,01,58,7.40
2009,06,29,01,59,7.50
2009,06,29,02,00,7.50
2009,06,29,02,01,7.50
2009,06,29,02,02,7.50
2009,06,29,02,03,7.50
2009,06,29,02,04,7.50
2009,06,29,02,05,7.50
2009,06,29,02,06,7.50
2009,06,29,02,07,7.50
2009,06,29,02,08,7.50
2009,06,29,02,09,7.50
2009,06,29,02,10,7.50
2009,06,29,02,11,7.50
2009,06,29,02,12,7.50
2009,06,29,02,13,7.50
2009,06,29,02,14,7.50
2009,06,29,02,15,7.50
2009,06,29,02,16,7.40
2009,06,29,02,17,7.40
2009,06,29,02,18,7.40
2009,06,29,02,19,7.40
2009,06,29,02,20,7.30
2009,06,29,02,21,7.30
2009,06,29,02,22,7.30
2009,06,29,02,23,7.20
2009,06,29,02,24,7.20
2009,06,29,02,25,7.20
2009,06,29,02,26,7.20
2009,06,29,02,27,7.20
2009,06,29,02,28,7.20
2009,06,29,02,29,7.20
2009,06,29,02,30,7.20
2009,06,29,02,31,7.20
2009,06,29,02,32,7.20
2009,06,29,02,33,7.30
2009,06,29,02,34,7.30
2009,06,29,02,35,7.30
2009,06,29,02,36,7.20
2009,06,29,02,37,7.20
2009,06,29,02,38,7.20
2009,06,29,02,39,7.20
2009,06,29,02,40,7.20
2009,06,29,02,41,7.20
2009,06,29,02,42,7.20
2009,06,29,02,43,7.20
2009,06,29,02,44,7.10
2009,06,29,02,45,7.10
2009,06,29,02,46,7.10
2009,06,29,02,47,7.10
2009,06,29,02,48,7.10
2009,06,29,02,49,7.10
2009,06,29,02,50,7.10
2009,06,29,02,51,7.10
2009,06,29,02,52,7.10
2009,06,29,02,53,7.10
2009,06,29,02,54,7.10
2009,06,29,02,55,7.10
2009,06,29,02,56,7.10
2009,06,29,02,57,7.10
2009,06,29,02,58,7.10
2009,06,29,02,59,7.10
2009,06,29,03,00,7.00
2009,06,29,03,01,7.00
2009,06,29,03,02,7.00
2009,06,29,03,03,7.00
2009,06,29,03,04,6.90
2009,06,29,03,05,6.90
2009,06,29,03,06,6.90
2009,06,29,03,07,6.90
2009,06,29,03,08,6.90
2009,06,29,03,09,6.90
2009,06,29,03,10,6.90
2009,06,29,03,11,6.90
2009,06,29,03,12,6.90
2009,06,29,03,13,6.90
2009,06,29,03,14,6.90
2009,06,29,03,15,6.80
2009,06,29,03,16,6.80
2009,06,29,03,17,6.80
2009,06,29,03,18,6.80
2009,06,29,03,19,6.80
2009,06,29,03,20,6.80
2009,06,29,03,21,6.80
2009,06,29,03,22,6.80
2009,06,29,03,23,6.80
2009,06,29,03,24,6.80
2009,06,29,03,25,6.80
2009,06,29,03,26,6.80
2009,06,29,03,27,6.80
2009,06,29,03,28,6.80
2009,06,29,03,29,6.80
2009,06,29,03,30,6.80
2009,06,29,03,31,6.80
2009,06,29,03,32,6.80
2009,06,29,03,33,6.80
2009,06,29,03,34,6.80
2009,06,29,03,35,6.80
2009,06,29,03,36,6.80
2009,06,29,03,37,6.80
2009,06,29,03,38,6.80
2009,06,29,03,39,6.80
2009,06,29,03,40,6.80
2009,06,29,03,41,6.80
2009,06,29,03,42,6.80
2009,06,29,03,43,6.70
2009,06,29,03,44,6.70
2009,06,29,03,45,6.70
2009,06,29,03,46,6.70
2009,06,29,03,47,6.70
2009,06,29,03,48,6.70
2009,06,29,03,49,6.70
2009,06,29,03,50,6.70
2009,06,29,03,51,6.70
2009,06,29,03,52,6.70
2009,06,29,03,53,6.70
2009,06,29,03,54,6.60
2009,06,29,03,55,6.60
2009,06,29,03,56,6.60
2009,06,29,03,57,6.60
2009,06,29,03,58,6.60
2009,06,29,03,59,6.50
2009,06,29,04,00,6.50
2009,06,29,04,01,6.50
2009,06,29,04,02,6.50
2009,06,29,04,03,6.50
2009,06,29,04,04,6.50
2009,06,29,04,05,6.50
2009,06,29,04,06,6.60
2009,06,29,04,07,6.50
2009,06,29,04,08,6.60
2009,06,29,04,09,6.60
2009,06,29,04,10,6.60
2009,06,29,04,11,6.60
2009,06,29,04,12,6.60
2009,06,29,04,13,6.50
2009,06,29,04,14,6.50
2009,06,29,04,15,6.50
2009,06,29,04,16,6.50
2009,06,29,04,17,6.50
2009,06,29,04,18,6.50
2009,06,29,04,19,6.50
2009,06,29,04,20,6.50
2009,06,29,04,21,6.50
2009,06,29,04,22,6.40
2009,06,29,04,23,6.40
2009,06,29,04,24,6.40
2009,06,29,04,25,6.40
2009,06,29,04,26,6.40
2009,06,29,04,27,6.40
2009,06,29,04,28,6.30
2009,06,29,04,29,6.30
2009,06,29,04,30,6.30
2009,06,29,04,31,6.30
2009,06,29,04,32,6.30
2009,06,29,04,33,6.30
2009,06,29,04,34,6.30
2009,06,29,04,35,6.30
2009,06,29,04,36,6.30
2009,06,29,04,37,6.30
2009,06,29,04,38,6.30
2009,06,29,04,39,6.30
2009,06,29,04,40,6.30
2009,06,29,04,41,6.30
2009,06,29,04,42,6.30
2009,06,29,04,43,6.30
2009,06,29,04,44,6.20
2009,06,29,04,45,6.20
2009,06,29,04,46,6.20
2009,06,29,04,47,6.20
2009,06,29,04,48,6.20
2009,06,29,04,49,6.20
2009,06,29,04,50,6.20
2009,06,29,04,51,6.10
2009,06,29,04,52,6.10
2009,06,29,04,53,6.10
2009,06,29,04,54,6.10
2009,06,29,04,55,6.10
2009,06,29,04,56,6.10
2009,06,29,04,57,6.10
2009,06,29,04,58,6.10
2009,06,29,04,59,6.10
2009,06,29,05,00,6.10
2009,06,29,05,01,6.10
2009,06,29,05,02,6.10
2009,06,29,05,03,6.10
2009,06,29,05,04,6.10
2009,06,29,05,05,6.10
2009,06,29,05,06,6.10
2009,06,29,05,07,6.20
2009,06,29,05,08,6.20
2009,06,29,05,09,6.20
2009,06,29,05,10,6.20
2009,06,29,05,11,6.20
2009,06,29,05,12,6.20
2009,06,29,05,13,6.20
2009,06,29,05,14,6.20
2009,06,29,05,15,6.20
2009,06,29,05,16,6.20
2009,06,29,05,17,6.20
2009,06,29,05,18,6.20
2009,06,29,05,19,6.20
2009,06,29,05,20,6.20
2009,06,29,05,21,6.20
2009,06,29,05,22,6.20
2009,06,29,05,23,6.20
2009,06,29,05,24,6.20
2009,06,29,05,25,6.20
2009,06,29,05,26,6.10
2009,06,29,05,27,6.10
2009,06,29,05,28,6.10
2009,06,29,05,29,6.10
2009,06,29,05,30,6.10
2009,06,29,05,31,6.10
2009,06,29,05,32,6.00
2009,06,29,05,33,6.00
2009,06,29,05,34,6.00
2009,06,29,05,35,6.00
2009,06,29,05,36,6.00
2009,06,29,05,37,6.00
2009,06,29,05,38,6.10
2009,06,29,05,39,6.10
2009,06,29,05,40,6.10
2009,06,29,05,41,6.10
2009,06,29,05,42,6.10
2009,06,29,05,43,6.10
2009,06,29,05,44,6.10
2009,06,29,05,45,6.10
2009,06,29,05,46,6.10
2009,06,29,05,47,6.10
2009,06,29,05,48,6.10
2009,06,29,05,49,6.10
2009,06,29,05,50,6.10
2009,06,29,05,51,6.10
2009,06,29,05,52,6.10
2009,06,29,05,53,6.10
2009,06,29,05,54,6.10
2009,06,29,05,55,6.20
2009,06,29,05,56,6.20
2009,06,29,05,57,6.20
2009,06,29,05,58,6.20
2009,06,29,05,59,6.20
2009,06,29,06,00,6.20
2009,06,29,06,01,6.20
2009,06,29,06,02,6.20
2009,06,29,06,03,6.20
2009,06,29,06,04,6.10
2009,06,29,06,05,6.10
2009,06,29,06,06,6.10
2009,06,29,06,07,6.10
2009,06,29,06,08,6.10
2009,06,29,06,09,6.10
2009,06,29,06,10,6.10
2009,06,29,06,11,6.10
2009,06,29,06,12,6.10
2009,06,29,06,13,6.10
2009,06,29,06,14,6.10
2009,06,29,06,15,6.10
2009,06,29,06,16,6.10
2009,06,29,06,17,6.20
2009,06,29,06,18,6.20
2009,06,29,06,19,6.20
2009,06,29,06,20,6.30
2009,06,29,06,21,6.30
2009,06,29,06,22,6.30
2009,06,29,06,23,6.40
2009,06,29,06,24,6.40
2009,06,29,06,25,6.40
2009,06,29,06,26,6.40
2009,06,29,06,27,6.40
2009,06,29,06,28,6.50
2009,06,29,06,29,6.50
2009,06,29,06,30,6.50
2009,06,29,06,31,6.60
2009,06,29,06,32,6.70
2009,06,29,06,33,6.70
2009,06,29,06,34,6.80
2009,06,29,06,35,6.80
2009,06,29,06,36,6.80
2009,06,29,06,37,6.90
2009,06,29,06,38,6.90
2009,06,29,06,39,7.00
2009,06,29,06,40,7.00
2009,06,29,06,41,7.10
2009,06,29,06,42,7.10
2009,06,29,06,43,7.20
2009,06,29,06,44,7.20
2009,06,29,06,45,7.20
2009,06,29,06,46,7.30
2009,06,29,06,47,7.30
2009,06,29,06,48,7.30
2009,06,29,06,49,7.40
2009,06,29,06,50,7.40
2009,06,29,06,51,7.40
2009,06,29,06,52,7.50
2009,06,29,06,53,7.60
2009,06,29,06,54,7.60
2009,06,29,06,55,7.60
2009,06,29,06,56,7.70
2009,06,29,06,57,7.70
2009,06,29,06,58,7.80
2009,06,29,06,59,7.80
2009,06,29,07,00,7.80
2009,06,29,07,01,7.90
2009,06,29,07,02,7.90
2009,06,29,07,03,8.00
2009,06,29,07,04,8.10
2009,06,29,07,05,8.10
2009,06,29,07,06,8.20
2009,06,29,07,07,8.20
2009,06,29,07,08,8.20
2009,06,29,07,09,8.30
2009,06,29,07,10,8.30
2009,06,29,07,11,8.40
2009,06,29,07,12,8.40
2009,06,29,07,13,8.50
2009,06,29,07,14,8.50
2009,06,29,07,15,8.60
2009,06,29,07,16,8.70
2009,06,29,07,17,8.70
2009,06,29,07,18,8.80
2009,06,29,07,19,8.80
2009,06,29,07,20,8.80
2009,06,29,07,21,8.90
2009,06,29,07,22,9.00
2009,06,29,07,23,9.10
2009,06,29,07,24,9.10
2009,06,29,07,25,9.20
2009,06,29,07,26,9.30
2009,06,29,07,27,9.40
2009,06,29,07,28,9.50
2009,06,29,07,29,9.60
2009,06,29,07,30,9.70
2009,06,29,07,31,9.80
2009,06,29,07,32,9.80
2009,06,29,07,33,9.90
2009,06,29,07,34,10.00
2009,06,29,07,35,10.10
2009,06,29,07,36,10.20
2009,06,29,07,37,10.20
2009,06,29,07,38,10.30
2009,06,29,07,39,10.30
2009,06,29,07,40,10.50
2009,06,29,07,41,10.50
2009,06,29,07,42,10.60
2009,06,29,07,43,10.70
2009,06,29,07,44,10.70
2009,06,29,07,45,10.80
2009,06,29,07,46,10.80
2009,06,29,07,47,10.70
2009,06,29,07,48,10.70
2009,06,29,07,49,10.80
2009,06,29,07,50,10.80
2009,06,29,07,51,10.90
2009,06,29,07,52,10.90
2009,06,29,07,53,10.90
2009,06,29,07,54,10.90
2009,06,29,07,55,10.90
2009,06,29,07,56,10.90
2009,06,29,07,57,10.80
2009,06,29,07,58,10.80
2009,06,29,07,59,10.80
2009,06,29,08,00,10.80
2009,06,29,08,01,10.80
2009,06,29,08,02,10.80
2009,06,29,08,03,10.80
2009,06,29,08,04,10.80
2009,06,29,08,05,10.90
2009,06,29,08,06,10.90
2009,06,29,08,07,10.90
2009,06,29,08,08,10.90
2009,06,29,08,09,10.90
2009,06,29,08,10,10.90
2009,06,29,08,11,11.00
2009,06,29,08,12,11.10
2009,06,29,08,13,11.10
2009,06,29,08,14,11.10
2009,06,29,08,15,11.20
2009,06,29,08,16,11.30
2009,06,29,08,17,11.40
2009,06,29,08,18,11.50
2009,06,29,08,19,11.70
2009,06,29,08,20,11.80
2009,06,29,08,21,11.90
2009,06,29,08,22,12.00
2009,06,29,08,23,12.10
2009,06,29,08,24,12.20
2009,06,29,08,25,12.30
2009,06,29,08,26,12.30
2009,06,29,08,27,12.30
2009,06,29,08,28,12.40
2009,06,29,08,29,12.40
2009,06,29,08,30,12.40
2009,06,29,08,31,12.40
2009,06,29,08,32,12.40
2009,06,29,08,33,12.30
2009,06,29,08,34,12.30
2009,06,29,08,35,12.30
2009,06,29,08,36,12.20
2009,06,29,08,37,12.20
2009,06,29,08,38,12.20
2009,06,29,08,39,12.20
2009,06,29,08,40,12.20
2009,06,29,08,41,12.30
2009,06,29,08,42,12.30
2009,06,29,08,43,12.30
2009,06,29,08,44,12.40
2009,06,29,08,45,12.40
2009,06,29,08,46,12.40
2009,06,29,08,47,12.50
2009,06,29,08,48,12.50
2009,06,29,08,49,12.50
2009,06,29,08,50,12.50
2009,06,29,08,51,12.60
2009,06,29,08,52,12.60
2009,06,29,08,53,12.60
2009,06,29,08,54,12.60
2009,06,29,08,55,12.70
2009,06,29,08,56,12.70
2009,06,29,08,57,12.70
2009,06,29,08,58,12.80
2009,06,29,08,59,12.80
2009,06,29,09,00,12.90
2009,06,29,09,01,12.90
2009,06,29,09,02,13.00
2009,06,29,09,03,13.10
2009,06,29,09,04,13.10
2009,06,29,09,05,13.20
2009,06,29,09,06,13.20
2009,06,29,09,07,13.20
2009,06,29,09,08,13.30
2009,06,29,09,09,13.30
2009,06,29,09,10,13.30
2009,06,29,09,11,13.40
2009,06,29,09,12,13.40
2009,06,29,09,13,13.50
2009,06,29,09,14,13.50
2009,06,29,09,15,13.60
2009,06,29,09,16,13.70
2009,06,29,09,17,13.70
2009,06,29,09,18,13.70
2009,06,29,09,19,13.80
2009,06,29,09,20,13.90
2009,06,29,09,21,13.90
2009,06,29,09,22,14.00
2009,06,29,09,23,14.00
2009,06,29,09,24,14.00
2009,06,29,09,25,13.90
2009,06,29,09,26,13.90
2009,06,29,09,27,13.90
2009,06,29,09,28,13.90
2009,06,29,09,29,13.90
2009,06,29,09,30,13.90
2009,06,29,09,31,13.90
2009,06,29,09,32,13.90
2009,06,29,09,33,13.90
2009,06,29,09,34,14.00
2009,06,29,09,35,14.00
2009,06,29,09,36,14.00
2009,06,29,09,37,14.10
2009,06,29,09,38,14.10
2009,06,29,09,39,14.10
2009,06,29,09,40,14.10
2009,06,29,09,41,14.10
2009,06,29,09,42,14.10
2009,06,29,09,43,14.10
2009,06,29,09,44,14.10
2009,06,29,09,45,14.10
2009,06,29,09,46,14.20
2009,06,29,09,47,14.20
2009,06,29,09,48,14.30
2009,06,29,09,49,14.40
2009,06,29,09,50,14.50
2009,06,29,09,51,14.50
2009,06,29,09,52,14.60
2009,06,29,09,53,14.60
2009,06,29,09,54,14.70
2009,06,29,09,55,14.70
2009,06,29,09,56,14.70
2009,06,29,09,57,14.80
2009,06,29,09,58,14.80
2009,06,29,09,59,14.80
2009,06,29,10,00,14.90
2009,06,29,10,01,15.00
2009,06,29,10,02,15.00
2009,06,29,10,03,15.00
2009,06,29,10,04,15.00
2009,06,29,10,05,15.00
2009,06,29,10,06,15.00
2009,06,29,10,07,15.00
2009,06,29,10,08,15.00
2009,06,29,10,09,15.00
2009,06,29,10,10,15.00
2009,06,29,10,11,15.00
2009,06,29,10,12,15.00
2009,06,29,10,13,15.00
2009,06,29,10,14,15.00
2009,06,29,10,15,15.00
2009,06,29,10,16,15.00
2009,06,29,10,17,15.00
2009,06,29,10,18,14.90
2009,06,29,10,19,14.80
2009,06,29,10,20,14.80
2009,06,29,10,21,14.80
2009,06,29,10,22,14.80
2009,06,29,10,23,14.80
2009,06,29,10,24,14.70
2009,06,29,10,25,14.70
2009,06,29,10,26,14.60
2009,06,29,10,27,14.60
2009,06,29,10,28,14.60
2009,06,29,10,29,14.50
2009,06,29,10,30,14.40
2009,06,29,10,31,14.50
2009,06,29,10,32,14.50
2009,06,29,10,33,14.60
2009,06,29,10,34,14.60
2009,06,29,10,35,14.70
2009,06,29,10,36,14.70
2009,06,29,10,37,14.60
2009,06,29,10,38,14.60
2009,06,29,10,39,14.70
2009,06,29,10,40,14.80
2009,06,29,10,41,14.90
2009,06,29,10,42,15.00
2009,06,29,10,43,15.00
2009,06,29,10,44,15.00
2009,06,29,10,45,15.00
2009,06,29,10,46,15.00
2009,06,29,10,47,15.00
2009,06,29,10,48,15.20
2009,06,29,10,49,15.20
2009,06,29,10,50,15.20
2009,06,29,10,51,15.20
2009,06,29,10,52,15.10
2009,06,29,10,53,15.00
2009,06,29,10,54,15.00
2009,06,29,10,55,15.00
2009,06,29,10,56,15.00
2009,06,29,10,57,15.00
2009,06,29,10,58,15.00
2009,06,29,10,59,14.80
2009,06,29,11,00,14.80
2009,06,29,11,01,14.70
2009,06,29,11,02,14.70
2009,06,29,11,03,14.60
2009,06,29,11,04,14.60
2009,06,29,11,05,14.70
2009,06,29,11,06,14.70
2009,06,29,11,07,14.80
2009,06,29,11,08,15.00
2009,06,29,11,09,15.00
2009,06,29,11,10,15.00
2009,06,29,11,11,15.00
2009,06,29,11,12,15.10
2009,06,29,11,13,15.20
2009,06,29,11,14,15.20
2009,06,29,11,15,15.20
2009,06,29,11,16,15.10
2009,06,29,11,17,15.00
2009,06,29,11,18,15.00
2009,06,29,11,19,15.00
2009,06,29,11,20,15.00
2009,06,29,11,21,15.00
2009,06,29,11,22,15.00
2009,06,29,11,23,15.00
2009,06,29,11,24,15.10
2009,06,29,11,25,15.10
2009,06,29,11,26,15.10
2009,06,29,11,27,15.00
2009,06,29,11,28,15.00
2009,06,29,11,29,15.00
2009,06,29,11,30,15.00
2009,06,29,11,31,15.00
2009,06,29,11,32,15.00
2009,06,29,11,33,15.10
2009,06,29,11,34,15.20
2009,06,29,11,35,15.30
2009,06,29,11,36,15.40
2009,06,29,11,37,15.40
2009,06,29,11,38,15.60
2009,06,29,11,39,15.70
2009,06,29,11,40,15.70
2009,06,29,11,41,15.70
2009,06,29,11,42,15.70
2009,06,29,11,43,15.70
2009,06,29,11,44,15.70
2009,06,29,11,45,15.70
2009,06,29,11,46,15.60
2009,06,29,11,47,15.60
2009,06,29,11,48,15.60
2009,06,29,11,49,15.60
2009,06,29,11,50,15.70
2009,06,29,11,51,15.90
2009,06,29,11,52,16.00
2009,06,29,11,53,16.10
2009,06,29,11,54,16.20
2009,06,29,11,55,16.20
2009,06,29,11,56,16.20
2009,06,29,11,57,16.20
2009,06,29,11,58,16.20
2009,06,29,11,59,16.20
2009,06,29,12,00,16.20
2009,06,29,12,01,16.20
2009,06,29,12,02,16.40
2009,06,29,12,03,16.40
2009,06,29,12,04,16.40
2009,06,29,12,05,16.50
2009,06,29,12,06,16.50
2009,06,29,12,07,16.40
2009,06,29,12,08,16.40
2009,06,29,12,09,16.50
2009,06,29,12,10,16.60
2009,06,29,12,11,16.70
2009,06,29,12,12,16.70
2009,06,29,12,13,16.80
2009,06,29,12,14,16.80
2009,06,29,12,15,17.00
2009,06,29,12,16,17.00
2009,06,29,12,17,17.10
2009,06,29,12,18,17.20
2009,06,29,12,19,17.20
2009,06,29,12,20,17.30
2009,06,29,12,21,17.30
2009,06,29,12,22,17.20
2009,06,29,12,23,17.20
2009,06,29,12,24,17.20
2009,06,29,12,25,17.10
2009,06,29,12,26,17.00
2009,06,29,12,27,16.80
2009,06,29,12,28,16.80
2009,06,29,12,29,16.70
2009,06,29,12,30,16.60
2009,06,29,12,31,16.60
2009,06,29,12,32,16.50
2009,06,29,12,33,16.50
2009,06,29,12,34,16.50
2009,06,29,12,35,16.60
2009,06,29,12,36,16.70
2009,06,29,12,37,16.70
2009,06,29,12,38,16.70
2009,06,29,12,39,16.70
2009,06,29,12,40,16.70
2009,06,29,12,41,16.70
2009,06,29,12,42,16.70
2009,06,29,12,43,16.60
2009,06,29,12,44,16.60
2009,06,29,12,45,16.60
2009,06,29,12,46,16.70
2009,06,29,12,47,16.70
2009,06,29,12,48,16.80
2009,06,29,12,49,16.80
2009,06,29,12,50,16.70
2009,06,29,12,51,16.70
2009,06,29,12,52,16.60
2009,06,29,12,53,16.60
2009,06,29,12,54,16.60
2009,06,29,12,55,16.70
2009,06,29,12,56,16.80
2009,06,29,12,57,16.80
2009,06,29,12,58,16.90
2009,06,29,12,59,17.00
2009,06,29,13,00,17.10
2009,06,29,13,01,17.10
2009,06,29,13,02,17.10
2009,06,29,13,03,17.10
2009,06,29,13,04,17.10
2009,06,29,13,05,17.00
2009,06,29,13,06,17.00
2009,06,29,13,07,16.90
2009,06,29,13,08,16.90
2009,06,29,13,09,16.80
2009,06,29,13,10,16.80
2009,06,29,13,11,16.80
2009,06,29,13,12,16.80
2009,06,29,13,13,16.80
2009,06,29,13,14,16.80
2009,06,29,13,15,16.80
2009,06,29,13,16,16.80
2009,06,29,13,17,16.90
2009,06,29,13,18,16.90
2009,06,29,13,19,17.00
2009,06,29,13,20,17.10
2009,06,29,13,21,17.10
2009,06,29,13,22,17.10
2009,06,29,13,23,17.10
2009,06,29,13,24,17.10
2009,06,29,13,25,17.20
2009,06,29,13,26,17.30
2009,06,29,13,27,17.30
2009,06,29,13,28,17.20
2009,06,29,13,29,17.20
2009,06,29,13,30,17.10
2009,06,29,13,31,17.10
2009,06,29,13,32,17.20
2009,06,29,13,33,17.20
2009,06,29,13,34,17.10
2009,06,29,13,35,17.00
2009,06,29,13,36,16.90
2009,06,29,13,37,16.80
2009,06,29,13,38,16.80
2009,06,29,13,39,16.80
2009,06,29,13,40,16.90
2009,06,29,13,41,17.00
2009,06,29,13,42,17.00
2009,06,29,13,43,17.00
2009,06,29,13,44,17.10
2009,06,29,13,45,17.00
2009,06,29,13,46,16.90
2009,06,29,13,47,16.90
2009,06,29,13,48,16.80
2009,06,29,13,49,16.70
2009,06,29,13,50,16.60
2009,06,29,13,51,16.60
2009,06,29,13,52,16.60
2009,06,29,13,53,16.60
2009,06,29,13,54,16.70
2009,06,29,13,55,16.70
2009,06,29,13,56,16.70
2009,06,29,13,57,16.70
2009,06,29,13,58,16.70
2009,06,29,13,59,16.60
2009,06,29,14,00,16.50
2009,06,29,14,01,16.30
2009,06,29,14,02,16.20
2009,06,29,14,03,16.00
2009,06,29,14,04,15.90
2009,06,29,14,05,15.80
2009,06,29,14,06,15.70
2009,06,29,14,07,15.60
2009,06,29,14,08,15.50
2009,06,29,14,09,15.40
2009,06,29,14,10,15.40
2009,06,29,14,11,15.30
2009,06,29,14,12,15.40
2009,06,29,14,13,15.40
2009,06,29,14,14,15.50
2009,06,29,14,15,15.60
2009,06,29,14,16,15.60
2009,06,29,14,17,15.70
2009,06,29,14,18,15.80
2009,06,29,14,19,15.80
2009,06,29,14,20,15.70
2009,06,29,14,21,15.60
2009,06,29,14,22,15.50
2009,06,29,14,23,15.30
2009,06,29,14,24,15.30
2009,06,29,14,25,15.40
2009,06,29,14,26,15.40
2009,06,29,14,27,15.30
2009,06,29,14,28,15.20
2009,06,29,14,29,15.20
2009,06,29,14,30,15.20
2009,06,29,14,31,15.10
2009,06,29,14,32,15.00
2009,06,29,14,33,15.00
2009,06,29,14,34,14.90
2009,06,29,14,35,14.80
2009,06,29,14,36,14.80
2009,06,29,14,37,14.80
2009,06,29,14,38,14.80
2009,06,29,14,39,14.80
2009,06,29,14,40,14.80
2009,06,29,14,41,14.80
2009,06,29,14,42,14.80
2009,06,29,14,43,14.80
2009,06,29,14,44,14.80
2009,06,29,14,45,14.80
2009,06,29,14,46,14.70
2009,06,29,14,47,14.60
2009,06,29,14,48,14.60
2009,06,29,14,49,14.70
2009,06,29,14,50,14.80
2009,06,29,14,51,14.70
2009,06,29,14,52,14.80
2009,06,29,14,53,14.80
2009,06,29,14,54,14.90
2009,06,29,14,55,15.00
2009,06,29,14,56,15.00
2009,06,29,14,57,15.00
2009,06,29,14,58,15.10
2009,06,29,14,59,15.30
2009,06,29,15,00,15.50
2009,06,29,15,01,15.60
2009,06,29,15,02,15.60
2009,06,29,15,03,15.60
2009,06,29,15,04,15.70
2009,06,29,15,05,15.80
2009,06,29,15,06,15.70
2009,06,29,15,07,15.60
2009,06,29,15,08,15.60
2009,06,29,15,09,15.50
2009,06,29,15,10,15.50
2009,06,29,15,11,15.50
2009,06,29,15,12,15.50
2009,06,29,15,13,15.50
2009,06,29,15,14,15.60
2009,06,29,15,15,15.70
2009,06,29,15,16,15.80
2009,06,29,15,17,15.90
2009,06,29,15,18,15.90
2009,06,29,15,19,15.90
2009,06,29,15,20,15.90
2009,06,29,15,21,16.00
2009,06,29,15,22,16.00
2009,06,29,15,23,16.10
2009,06,29,15,24,16.20
2009,06,29,15,25,16.30
2009,06,29,15,26,16.40
2009,06,29,15,27,16.50
2009,06,29,15,28,16.40
2009,06,29,15,29,16.30
2009,06,29,15,30,16.30
2009,06,29,15,31,16.30
2009,06,29,15,32,16.30
2009,06,29,15,33,16.30
2009,06,29,15,34,16.40
2009,06,29,15,35,16.40
2009,06,29,15,36,16.40
2009,06,29,15,37,16.40
2009,06,29,15,38,16.40
2009,06,29,15,39,16.30
2009,06,29,15,40,16.20
2009,06,29,15,41,16.10
2009,06,29,15,42,16.10
2009,06,29,15,43,16.10
2009,06,29,15,44,16.10
2009,06,29,15,45,16.10
2009,06,29,15,46,16.00
2009,06,29,15,47,16.00
2009,06,29,15,48,16.10
2009,06,29,15,49,16.10
2009,06,29,15,50,16.10
2009,06,29,15,51,16.10
2009,06,29,15,52,16.10
2009,06,29,15,53,16.10
2009,06,29,15,54,16.20
2009,06,29,15,55,16.30
2009,06,29,15,56,16.50
2009,06,29,15,57,16.60
2009,06,29,15,58,16.70
2009,06,29,15,59,16.70
2009,06,29,16,00,16.70
2009,06,29,16,01,16.60
2009,06,29,16,02,16.50
2009,06,29,16,03,16.50
2009,06,29,16,04,16.40
2009,06,29,16,05,16.40
2009,06,29,16,06,16.40
2009,06,29,16,07,16.30
2009,06,29,16,08,16.20
2009,06,29,16,09,16.20
2009,06,29,16,10,16.10
2009,06,29,16,11,16.00
2009,06,29,16,12,16.00
2009,06,29,16,13,16.10
2009,06,29,16,14,16.00
2009,06,29,16,15,16.00
2009,06,29,16,16,16.00
2009,06,29,16,17,16.00
2009,06,29,16,18,16.10
2009,06,29,16,19,16.20
2009,06,29,16,20,16.20
2009,06,29,16,21,16.20
2009,06,29,16,22,16.20
2009,06,29,16,23,16.20
2009,06,29,16,24,16.00
2009,06,29,16,25,15.90
2009,06,29,16,26,15.90
2009,06,29,16,27,15.90
2009,06,29,16,28,15.90
2009,06,29,16,29,16.00
2009,06,29,16,30,15.90
2009,06,29,16,31,15.90
2009,06,29,16,32,15.90
2009,06,29,16,33,15.80
2009,06,29,16,34,15.70
2009,06,29,16,35,15.60
2009,06,29,16,36,15.60
2009,06,29,16,37,15.70
2009,06,29,16,38,15.70
2009,06,29,16,39,15.80
2009,06,29,16,40,15.90
2009,06,29,16,41,16.00
2009,06,29,16,42,16.00
2009,06,29,16,43,16.00
2009,06,29,16,44,15.90
2009,06,29,16,45,15.80
2009,06,29,16,46,15.90
2009,06,29,16,47,16.00
2009,06,29,16,48,15.90
2009,06,29,16,49,15.90
2009,06,29,16,50,15.90
2009,06,29,16,51,15.90
2009,06,29,16,52,15.90
2009,06,29,16,53,15.90
2009,06,29,16,54,15.90
2009,06,29,16,55,15.80
2009,06,29,16,56,15.80
2009,06,29,16,57,15.80
2009,06,29,16,58,15.80
2009,06,29,16,59,15.80
2009,06,29,17,00,15.80
2009,06,29,17,01,15.80
2009,06,29,17,02,15.80
2009,06,29,17,03,15.70
2009,06,29,17,04,15.70
2009,06,29,17,05,15.80
2009,06,29,17,06,15.80
2009,06,29,17,07,15.70
2009,06,29,17,08,15.70
2009,06,29,17,09,15.70
2009,06,29,17,10,15.70
2009,06,29,17,11,15.70
2009,06,29,17,12,15.70
2009,06,29,17,13,15.70
2009,06,29,17,14,15.60
2009,06,29,17,15,15.60
2009,06,29,17,16,15.60
2009,06,29,17,17,15.60
2009,06,29,17,18,15.70
2009,06,29,17,19,15.70
2009,06,29,17,20,15.70
2009,06,29,17,21,15.80
2009,06,29,17,22,15.70
2009,06,29,17,23,15.70
2009,06,29,17,24,15.80
2009,06,29,17,25,15.80
2009,06,29,17,26,15.80
2009,06,29,17,27,15.80
2009,06,29,17,28,15.80
2009,06,29,17,29,15.80
2009,06,29,17,30,15.80
2009,06,29,17,31,15.80
2009,06,29,17,32,15.70
2009,06,29,17,33,15.70
2009,06,29,17,34,15.70
2009,06,29,17,35,15.80
2009,06,29,17,36,15.80
2009,06,29,17,37,15.80
2009,06,29,17,38,15.70
2009,06,29,17,39,15.70